Flag for Germany Weather past 2 weeks in Erlangen, Bavaria, Germany

Now
39 °F

Clear.


Feels Like: 39 °F
Forecast: 38 / 60 °F
Wind: 1 mph from North

Location: Nuernberg

Current Time: Sep 24, 2014 at 12:22:44 AM

Latest Report: Sep 23, 2014 at 11:50 PM


Visibility: 10 mi

Pressure: 30.09 "Hg

Humidity: 100%

Dew point: 39 °F

Location of ErlangenLocation

Historic Weather in Erlangen — Graph

°F

Erlangen temperature yesterday

Maximum temperature yesterday: 55 °F (at 2:20 PM)
Minimum temperature yesterday: 41 °F (at 10:50 PM)
Average temperature yesterday: 49 °F

Past Weeks' High & Low Weather Summary

 TemperatureHumidityPressure
High75 °F (Sep 18, 2:50 PM)100% (Sep 9, 12:50 AM)30.18 "Hg (Sep 9, 12:50 AM)
Low41 °F (Sep 23, 10:50 PM)53% (Sep 9, 1:50 PM)29.89 "Hg (Sep 17, 5:50 PM)
Average59 °F88%30.01 "Hg
* Reported Sep 8 11:20 PM — Sep 23 11:20 PM, Erlangen, Weather by CustomWeather, © 2014

Note: Actual official high and low records may vary slightly from our data, if they occured in-between our weather recording intervals... More about our weather records

Advertising

Erlangen weather history for previous 24 hours

 ConditionsComfort  
Time TempWeatherWind HumidityBarometerVisibility
11:20 PM
Sep 23
41 °FClear.2 mph93%30.09 "Hg10 mi
10:50 PM41 °FClear.1 mph100%30.09 "Hg10 mi
10:20 PM43 °FClear.1 mph93%30.09 "Hg10 mi
9:50 PM45 °FClear.No wind87%30.09 "Hg10 mi
9:20 PM45 °FPassing clouds.3 mph87%30.09 "HgN/A
8:50 PM46 °FClear.3 mph82%30.09 "Hg10 mi
8:20 PM48 °FPassing clouds.3 mph76%30.09 "HgN/A
7:50 PM48 °FSunny.3 mph82%30.09 "Hg10 mi
7:20 PM50 °FSunny.3 mph76%30.09 "Hg10 mi
6:50 PM52 °FPassing clouds.3 mph72%30.09 "HgN/A
6:20 PM55 °FPassing clouds.1 mph55%30.09 "HgN/A
5:50 PM55 °FPassing clouds.2 mph59%30.09 "HgN/A
5:20 PM55 °FPassing clouds.3 mph59%30.09 "HgN/A
4:50 PM55 °FPassing clouds.5 mph59%30.09 "HgN/A
4:20 PM55 °FScattered clouds.5 mph55%30.12 "HgN/A
3:50 PM55 °FScattered clouds.5 mph63%30.12 "HgN/A
3:20 PM54 °FScattered clouds.5 mph63%30.12 "HgN/A
2:50 PM55 °FPartly sunny.6 mph55%30.15 "HgN/A
2:20 PM55 °FPartly sunny.6 mph55%30.15 "HgN/A
1:50 PM54 °FPartly sunny.7 mph67%30.15 "HgN/A
1:20 PM54 °FPartly sunny.6 mph67%30.15 "HgN/A
12:20 PM52 °FBroken clouds.5 mph77%30.18 "HgN/A
11:50 AM52 °FBroken clouds.5 mph77%30.18 "HgN/A
11:20 AM50 °FPartly sunny.5 mph82%30.18 "HgN/A
10:50 AM50 °FPartly sunny.5 mph82%30.18 "HgN/A
10:20 AM50 °FPartly sunny.6 mph82%30.18 "HgN/A
9:50 AM48 °FPartly sunny.6 mph87%30.18 "HgN/A
9:20 AM48 °FPartly sunny.6 mph87%30.15 "HgN/A
8:50 AM48 °FPartly sunny.5 mph87%30.15 "HgN/A
8:20 AM48 °FPartly sunny.6 mph87%30.15 "HgN/A
7:50 AM48 °FPassing clouds.6 mph87%30.15 "HgN/A
7:20 AM48 °FPassing clouds.3 mph87%30.12 "HgN/A
6:50 AM46 °FPassing clouds.2 mph93%30.12 "HgN/A
6:20 AM46 °FPassing clouds.2 mph93%30.12 "HgN/A
5:50 AM46 °FPassing clouds.5 mph93%30.09 "HgN/A
5:20 AM46 °FPassing clouds.5 mph93%30.09 "HgN/A
4:50 AM46 °FPassing clouds.5 mph93%30.09 "HgN/A
4:20 AM46 °FPassing clouds.8 mph93%30.09 "HgN/A
3:50 AM48 °FPassing clouds.6 mph87%30.09 "HgN/A
3:20 AM48 °FPassing clouds.5 mph87%30.09 "HgN/A
2:50 AM48 °FPassing clouds.6 mph87%30.09 "HgN/A
2:20 AM48 °FClear.9 mph87%30.09 "Hg10 mi
1:50 AM48 °FClear.7 mph87%30.09 "Hg10 mi
1:20 AM48 °FClear.8 mph87%30.09 "Hg10 mi
12:50 AM46 °FClear.8 mph93%30.09 "Hg10 mi
12:20 AM48 °FPassing clouds.8 mph87%30.09 "HgN/A
Weather by CustomWeather, © 2014

See weather overviewHow to use our weather pages